Regional Weather Roundup
Issued by NWS State College, PA

Home | Current Version | Previous Version | Graphics & Text | Print | Product List | Glossary Off
Versions: 1 2 3 4 5 6 7 8 9 10 11 12 13 14 15 16 17 18 19 20 21 22 23 24 25 26 27 28 29 30 31 32 33 34 35 36 37 38 39 40 41 42 43 44 45 46 47 48 49 50

000
ASUS41 KCTP 252303
RWRCTP

REGIONAL WEATHER ROUNDUP
NATIONAL WEATHER SERVICE STATE COLLEGE PA
700 PM EDT MON MAY 25 2015

Note: "fair" indicates few or no clouds below 12,000 feet with no
significant weather and/or obstructions to visibility.

* = STATION THAT DOES NOT REPORT PRECIPITATION /E.G. RAIN...SNOW...ETC/
    THUNDER OR FOG.

PAZ002>004-007>009-013>016-020>023-029>032-260000-
WESTERN PENNSYLVANIA

CITY           SKY/WX    TMP DP  RH WIND       PRES   REMARKS
ERIE           PTSUNNY   76  67  73 SW3       30.02F
MEADVILLE      CLOUDY    79  60  52 SW9       30.07F
FRANKLIN*      PTSUNNY   77  57  50 S16G23    30.10F
NEW CASTLE     MOCLDY    81  62  52 SW9G17    30.10S
BEAVER COUNTY  NOT AVBL
BUTLER*        PTSUNNY   81  59  47 SW13G20   30.13F
PITTSBURGH INT PTSUNNY   81  59  47 SW12      30.11F
PITTSBURGH     PTSUNNY   80  56  43 SW13      30.12F
INDIANA*       PTSUNNY   81  61  50 SW8       30.17S
LATROBE        MOSUNNY   82  59  44 SW9       30.15F
WASHINGTON CO* PTSUNNY   79  61  53 S6        30.15F
$$

PAZ004>006-010>012-017>019-024>028-033>037-041-042-045-046-049>053-260000-
CENTRAL PENNSYLVANIA

CITY           SKY/WX    TMP DP  RH WIND       PRES   REMARKS
BRADFORD       PTSUNNY   77  57  50 S12G24    30.12F
DUBOIS         PTSUNNY   80  57  45 S9G23     30.13S
CLEARFIELD     PTSUNNY   81  53  37 SW9       30.13F
JOHNSTOWN      MOSUNNY   78  52  40 SW8       30.18S
ALTOONA        MOSUNNY   81  55  40 S12       30.16S
STATE COLLEGE  MOSUNNY   79  57  47 S8        30.13S
WILLIAMSPORT   MOSUNNY   82  57  42 S18G25    30.08F
SELINSGROVE    MOSUNNY   82  58  43 S7        30.13S
FT INDIANTOWN  MOSUNNY   82  59  45 S13G20    30.14F
CAPITAL CITY   SUNNY     82  57  42 S10       30.14S
HARRISBURG     MOSUNNY   83  59  44 S12G18    30.14S
YORK           SUNNY     80  59  48 S8G18     30.16F
$$

PAZ038>040-043-044-047-048-054-055-060>062-067>071-260000-
EASTERN PENNSYLVANIA

CITY           SKY/WX    TMP DP  RH WIND       PRES   REMARKS
SCRANTON       MOSUNNY   83  53  35 SW12G21   30.13S
MOUNT POCONO   MOSUNNY   77  55  46 S15G25    30.20S
ALLENTOWN      PTSUNNY   82  58  43 S15G23    30.16S
QUAKERTOWN*    MOCLDY    79  59  50 SW10G17   30.19S
READING        PTSUNNY   81  59  47 S14G21    30.15S
LANCASTER      MOSUNNY   79  60  52 S15G22    30.16F
COATESVILLE    MOCLDY    77  59  53 SW7       30.21S
POTTSTOWN      PTSUNNY   79  59  50 S6        30.20S
BLUE BELL      PTSUNNY   81  59  47 SW9       30.18S
DOYLESTOWN     MOSUNNY   79  55  43 S12G17    30.18R
WILLOW GROVE   NOT AVBL
NORTH PHILA    MOSUNNY   83  54  36 SW15G25   30.20R
PHILADELPHIA   PTSUNNY   83  57  41 SW18      30.19S
$$



USA.gov is the U.S. government's official web portal to all federal, state and local government web resources and services.